Hourly Data Report for August 02, 2019

TORONTO CITY
ONTARIO
Current Station Operator: ECCC - MSC

43°40'00.000" N
79°24'00.000" W
112.50 m
6158355
71508
XTO

Download Data

Hourly Data (August 2019)
Hourly Data Report for August 2, 2019
TIME
LST
Temp Definition
°C
Dew Point Definition
°C
Rel Hum Definition
%
Precip. Amount Definition
mm

Wind Dir Definition
10's deg

Wind Spd Definition
km/h
Visibility Definition
km
Stn Press Definition
kPa
Hmdx Definition


Wind Chill Definition


Weather Definition


00:00 19.1 10.7 58 0.0       100.75     LegendNANA
01:00 18.1 11.2 64 0.0       100.73     LegendNANA
02:00 18.3 10.5 60 0.0       100.72     LegendNANA
03:00 18.9 9.7 55 0.0       100.74     LegendNANA
04:00 19.0 11.0 60 0.0       100.72     LegendNANA
05:00 18.9 11.1 61 0.0       100.75     LegendNANA
06:00 19.3 10.8 58 0.0       100.77     LegendNANA
07:00 19.9 11.2 57 0.0       100.77     LegendNANA
08:00 22.2 10.3 47 0.0       100.77     LegendNANA
09:00 23.7 10.4 43 0.0       100.77 25   LegendNANA
10:00 24.6 8.9 37 0.0       100.78 25   LegendNANA
11:00 25.4 6.9 31 0.0       100.75 25   LegendNANA
12:00 25.5 7.1 31 0.0       100.72 26   LegendNANA
13:00 26.1 7.5 31 0.0       100.68 26   LegendNANA
14:00 26.1 4.9 26 0.0       100.66 25   LegendNANA
15:00 26.5 5.0 25 0.0       100.56 26   LegendNANA
16:00 26.2 5.3 26 0.0       100.53 26   LegendNANA
17:00 25.4 5.0 27 0.0       100.46 25   LegendNANA
18:00 24.8 6.5 31 0.0       100.44 25   LegendNANA
19:00 24.4 7.3 33 0.0       100.44 25   LegendNANA
20:00 23.0 11.0 47 0.0       100.46 25   LegendNANA
21:00 21.3 13.3 60 0.0       100.53     LegendNANA
22:00 21.2 13.3 60 0.0       100.53     LegendNANA
23:00 20.3 12.9 63 0.0       100.49     LegendNANA

Notes on Data Quality.

Legend

  • E = Estimated
  • M = Missing
  • NA = Not Available*
  • [empty] = Indicates an unobserved value
Date modified: